Regional Weather Roundup
Issued by NWS

Home | Current Version | Previous Version | Text Only | Print | Product List | Glossary Off
Versions: 1 2 3 4 5 6 7 8 9 10 11 12 13 14 15 16 17 18 19 20 21 22 23 24 25 26 27 28 29 30 31 32 33 34 35 36 37 38 39 40 41 42 43 44 45 46 47 48 49 50

000
ASUS43 KIND 222259
RWRIN

WEATHER ROUNDUP FOR INDIANA
NATIONAL WEATHER SERVICE INDIANAPOLIS IN
700 PM EDT FRI AUG 22 2014

NOTE: "FAIR" INDICATES FEW OR NO CLOUDS BELOW 12,000 FEET WITH NO
SIGNIFICANT WEATHER AND/OR OBSTRUCTIONS TO VISIBILITY.

* - STATION DOES NOT REPORT WEATHER SUCH AS PRECIPITATION OR FOG.

+ - STATION NOT QUALITY CONTROLLED BY THE NATIONAL WEATHER SERVICE.
    USE DATA WITH CAUTION...ESPECIALLY DEWPOINT AND RELATIVE
    HUMIDITY OBSERVATIONS.

INZ001>003-010>013-019-020-230000-
NORTHWEST INDIANA

CITY           SKY/WX    TMP DP  RH WIND       PRES   REMARKS
GARY /AIRPORT/ PTSUNNY   86  72  62 W6        29.94S
KNOX *+        CLOUDY    82  72  73 W5        29.95S
MONTICELLO +   MOSUNNY   82  74  77 W5        29.96S
VALPARAISO     CLOUDY    81  71  71 SW9       29.96S

$$

LMZ046-743>745-230000-
SOUTHERN LAKE MICHIGAN

STATION/POSITION TIME  TEMP WIND        PRES
                       AIR  DIR/SP/G
                 (UTC) (F)  (DEG/KT/KT) (MB)
MICHIGAN CITY    2200   79  360/  3/  4   N/A

$$

INZ004-005-014>016-021>024-230000-
NORTH CENTRAL INDIANA

CITY           SKY/WX    TMP DP  RH WIND       PRES   REMARKS
ELKHART        PTSUNNY   84  72  65 CALM      29.96R
GOSHEN         PTSUNNY   85  73  67 E3        29.95S
SOUTH BEND     PTSUNNY   84  73  69 W6        29.96S
WARSAW +       MOSUNNY   82  73  74 CALM      29.96S

$$

INZ006>009-017-018-025>027-230000-
NORTHEAST INDIANA

CITY           SKY/WX    TMP DP  RH WIND       PRES   REMARKS
ANGOLA *+      MOSUNNY   82  72  69 NE3       29.96S
FORT WAYNE     PTSUNNY   81  74  79 SW6       29.96S

$$

INZ028-029-035-036-043>045-051>053-230000-
WEST CENTRAL INDIANA

CITY           SKY/WX    TMP DP  RH WIND       PRES   REMARKS
GREENCASTLE +  MOSUNNY   81  73  78 CALM      29.99S
LAFAYETTE      PTSUNNY   82  73  74 SW7       29.96R
TERRE HAUTE    PTSUNNY   84  74  71 S6        29.97S

$$

INZ030>032-037>040-046>048-054>057-064-065-230000-
CENTRAL INDIANA

CITY           SKY/WX    TMP DP  RH WIND       PRES   REMARKS
FRANKFORT +    MOSUNNY   83  74  76 SW5       29.99R
INDIANAPOLIS   PTSUNNY   85  68  56 W7        29.97S
-EAGLE CREEK   MOSUNNY   84  69  60 CALM      29.97S
KOKOMO *+      PTSUNNY   81  73  78 CALM      29.96F
MT COMFORT *+  MOSUNNY   82  68  61 N5        29.99R
SHELBYVILLE    SUNNY     86  71  60 W3        29.96F

$$

INZ033-034-041-042-049-050-058-059-230000-
EAST CENTRAL INDIANA

CITY           SKY/WX    TMP DP  RH WIND       PRES   REMARKS
MUNCIE         PTSUNNY   81  72  74 NW8       29.97S

$$

INZ060-061-067>069-081>083-085>088-230000-
SOUTHWEST INDIANA

CITY           SKY/WX    TMP DP  RH WIND       PRES   REMARKS
EVANSVILLE     CLOUDY    88  75  65 W7        29.95S HX  97

$$

INZ062-063-066-070>080-084-089>092-230000-
SOUTH CENTRAL AND SOUTHEAST INDIANA

CITY           SKY/WX    TMP DP  RH WIND       PRES   REMARKS
BLOOMINGTON    MOSUNNY   84  74  71 W5        29.97F

$$



USA.gov is the U.S. government's official web portal to all federal, state and local government web resources and services.